QPF
0.00 0.00 0.01 0.00 0.00 0.00 0.00 0.00 0.01 0.04 0.02 0.01 0.00 0.01 0.01 0.01 0.00 0.00 0.00 0.00 0.00 0.00 0.00 0.00 0.00 0.00 0.00 0.01 0.01 0.02 0.03 0.03 0.04 0.06 0.07 0.07 0.07 0.07 0.07 0.07 0.05 0.05 0.06 0.08
0.00 0.01 0.00 0.01 0.00 0.00 0.00 0.00 0.01 0.03 0.02 0.01 0.00 0.01 0.02 0.01 0.00 0.00 0.00 0.00 0.00 0.00 0.00 0.01 0.00 0.00 0.00 0.00 0.00 0.01 0.01 0.02 0.02 0.03 0.03 0.03 0.03 0.03 0.04 0.04 0.05 0.05 0.06 0.07
0.02 0.02 0.01 0.00 0.00 0.00 0.00 0.00 0.02 0.07 0.09 0.03 0.02 0.08 0.10 0.05 0.02 0.00 0.00 0.00 0.00 0.00 0.00 0.00 0.00 0.00 0.00 0.00 0.00 0.01 0.01 0.01 0.01 0.01 0.02 0.03 0.03 0.04 0.05 0.04 0.04 0.03 0.04 0.05
0.00 0.01 0.00 0.01 0.01 0.01 0.03 0.01 0.02 0.03 0.02 0.06 0.09 0.20 0.28 0.23 0.12 0.03 0.01 0.00 0.01 0.00 0.00 0.00 0.00 0.00 0.00 0.00 0.00 0.00 0.01 0.01 0.01 0.01 0.03 0.03 0.04 0.05 0.04 0.04 0.03 0.03 0.03 0.03
0.01 0.00 0.00 0.01 0.02 0.00 0.01 0.00 0.00 0.01 0.01 0.04 0.10 0.20 0.36 0.41 0.40 0.10 0.01 0.00 0.00 0.00 0.00 0.00 0.00 0.00 0.00 0.00 0.00 0.00 0.01 0.02 0.03 0.03 0.04 0.04 0.04 0.05 0.03 0.03 0.02 0.01 0.01 0.01
0.00 0.00 0.00 0.00 0.00 0.00 0.00 0.00 0.02 0.05 0.07 0.11 0.19 0.20 0.32 0.38 0.34 0.09 0.01 0.00 0.00 0.00 0.00 0.00 0.00 0.00 0.00 0.00 0.00 0.00 0.01 0.04 0.05 0.05 0.05 0.05 0.05 0.05 0.03 0.02 0.02 0.02 0.01 0.01
0.03 0.01 0.00 0.00 0.01 0.01 0.00 0.02 0.12 0.34 0.42 0.36 0.20 0.16 0.18 0.08 0.04 0.02 0.01 0.01 0.00 0.00 0.01 0.01 0.01 0.00 0.00 0.00 0.00 0.00 0.02 0.04 0.04 0.04 0.05 0.05 0.05 0.05 0.03 0.02 0.02 0.02 0.01 0.01
0.05 0.04 0.01 0.00 0.00 0.01 0.00 0.01 0.06 0.15 0.21 0.22 0.12 0.19 0.12 0.01 0.00 0.00 0.00 0.00 0.00 0.00 0.00 0.00 0.00 0.00 0.00 0.00 0.00 0.00 0.01 0.02 0.02 0.02 0.03 0.03 0.03 0.02 0.01 0.02 0.02 0.01 0.01 0.00
0.01 0.01 0.00 0.00 0.00 0.00 0.00 0.00 0.00 0.01 0.03 0.07 0.09 0.16 0.10 0.01 0.00 0.00 0.00 0.00 0.00 0.00 0.00 0.00 0.00 0.00 0.00 0.00 0.01 0.01 0.01 0.01 0.01 0.01 0.01 0.01 0.01 0.01 0.01 0.02 0.01 0.00 0.00 0.00
0.00 0.00 0.00 0.00 0.00 0.00 0.00 0.00 0.00 0.00 0.01 0.02 0.05 0.11 0.10 0.02 0.00 0.00 0.00 0.00 0.00 0.00 0.00 0.00 0.00 0.00 0.00 0.00 0.00 0.00 0.00 0.00 0.00 0.00 0.00 0.00 0.00 0.01 0.01 0.01 0.01 0.01 0.01 0.01
0.00 0.00 0.01 0.00 0.00 0.00 0.00 0.00 0.00 0.00 0.00 0.00 0.01 0.04 0.02 0.00 0.00 0.00 0.00 0.00 0.00 0.00 0.00 0.00 0.00 0.00 0.00 0.00 0.00 0.00 0.00 0.00 0.00 0.00 0.00 0.00 0.00 0.00 0.00 0.01 0.01 0.01 0.02 0.02
0.00 0.00 0.00 0.01 0.01 0.00 0.00 0.00 0.00 0.00 0.00 0.00 0.00 0.01 0.00 0.00 0.00 0.00 0.00 0.00 0.00 0.00 0.00 0.00 0.00 0.00 0.00 0.00 0.00 0.00 0.00 0.00 0.00 0.00 0.00 0.00 0.00 0.00 0.00 0.01 0.01 0.01 0.02 0.02
0.00 0.00 0.01 0.06 0.04 0.01 0.00 0.00 0.00 0.00 0.00 0.00 0.00 0.00 0.00 0.00 0.00 0.00 0.00 0.00 0.00 0.00 0.00 0.00 0.00 0.00 0.00 0.00 0.00 0.00 0.00 0.00 0.00 0.00 0.00 0.00 0.00 0.01 0.01 0.01 0.01 0.02 0.03 0.04
0.00 0.00 0.00 0.01 0.01 0.00 0.00 0.00 0.00 0.00 0.00 0.00 0.00 0.00 0.00 0.00 0.00 0.00 0.00 0.00 0.00 0.00 0.00 0.00 0.00 0.00 0.00 0.00 0.00 0.00 0.00 0.00 0.00 0.00 0.00 0.00 0.01 0.01 0.02 0.02 0.03 0.03 0.04 0.06
0.00 0.00 0.00 0.00 0.00 0.00 0.00 0.00 0.00 0.00 0.00 0.00 0.00 0.00 0.00 0.00 0.00 0.00 0.00 0.00 0.00 0.00 0.00 0.00 0.00 0.00 0.00 0.00 0.00 0.00 0.00 0.00 0.00 0.00 0.01 0.01 0.01 0.02 0.02 0.02 0.03 0.04 0.05 0.05
0.00 0.00 0.00 0.00 0.00 0.00 0.00 0.00 0.00 0.00 0.00 0.00 0.00 0.00 0.00 0.00 0.00 0.00 0.00 0.00 0.00 0.00 0.00 0.00 0.00 0.00 0.00 0.00 0.00 0.00 0.00 0.00 0.01 0.01 0.01 0.02 0.02 0.03 0.03 0.04 0.05 0.06 0.08 0.08
0.00 0.00 0.00 0.00 0.00 0.00 0.00 0.00 0.00 0.00 0.00 0.00 0.00 0.00 0.00 0.00 0.00 0.00 0.00 0.00 0.00 0.00 0.00 0.00 0.00 0.00 0.00 0.00 0.00 0.00 0.00 0.00 0.01 0.02 0.02 0.03 0.03 0.03 0.04 0.04 0.05 0.07 0.10 0.10
0.00 0.00 0.00 0.00 0.00 0.00 0.00 0.00 0.00 0.00 0.00 0.00 0.00 0.00 0.00 0.00 0.00 0.00 0.00 0.00 0.00 0.00 0.00 0.00 0.00 0.00 0.00 0.00 0.00 0.00 0.00 0.01 0.01 0.02 0.02 0.02 0.03 0.03 0.04 0.05 0.07 0.10 0.12 0.12
0.00 0.00 0.00 0.00 0.00 0.00 0.00 0.00 0.00 0.00 0.00 0.00 0.00 0.00 0.00 0.00 0.00 0.00 0.00 0.00 0.00 0.00 0.00 0.00 0.00 0.00 0.00 0.01 0.00 0.01 0.01 0.01 0.02 0.02 0.02 0.02 0.03 0.04 0.05 0.06 0.09 0.12 0.12 0.12
0.00 0.00 0.00 0.00 0.00 0.00 0.00 0.00 0.00 0.00 0.00 0.00 0.00 0.00 0.00 0.00 0.00 0.00 0.00 0.00 0.00 0.00 0.00 0.00 0.00 0.00 0.01 0.01 0.01 0.01 0.02 0.02 0.02 0.02 0.02 0.02 0.04 0.05 0.06 0.09 0.11 0.12 0.12 0.13
0.00 0.00 0.00 0.00 0.00 0.00 0.00 0.00 0.00 0.00 0.00 0.00 0.00 0.00 0.00 0.00 0.00 0.00 0.00 0.00 0.00 0.00 0.00 0.00 0.00 0.01 0.02 0.01 0.02 0.02 0.03 0.02 0.02 0.01 0.02 0.02 0.05 0.07 0.08 0.11 0.12 0.12 0.13 0.14
0.00 0.00 0.00 0.00 0.00 0.00 0.00 0.00 0.00 0.00 0.00 0.00 0.00 0.00 0.00 0.00 0.00 0.00 0.00 0.00 0.00 0.00 0.00 0.00 0.00 0.01 0.01 0.02 0.02 0.03 0.02 0.02 0.02 0.02 0.02 0.03 0.05 0.06 0.06 0.10 0.11 0.13 0.15 0.15
0.00 0.00 0.00 0.00 0.00 0.00 0.00 0.00 0.00 0.00 0.00 0.00 0.00 0.00 0.00 0.00 0.00 0.00 0.00 0.00 0.00 0.00 0.00 0.00 0.01 0.01 0.01 0.02 0.02 0.03 0.02 0.02 0.02 0.02 0.03 0.04 0.05 0.08 0.11 0.13 0.13 0.14 0.16 0.17
0.00 0.00 0.00 0.00 0.00 0.00 0.00 0.00 0.00 0.00 0.00 0.00 0.00 0.00 0.00 0.00 0.00 0.00 0.00 0.00 0.00 0.00 0.00 0.00 0.01 0.01 0.01 0.01 0.02 0.02 0.02 0.03 0.03 0.04 0.04 0.04 0.06 0.09 0.12 0.15 0.16 0.16 0.16 0.15
0.00 0.00 0.00 0.00 0.00 0.00 0.00 0.00 0.00 0.00 0.00 0.00 0.00 0.00 0.00 0.00 0.00 0.00 0.00 0.00 0.00 0.00 0.00 0.00 0.01 0.01 0.01 0.01 0.01 0.02 0.02 0.03 0.03 0.04 0.03 0.05 0.07 0.11 0.13 0.15 0.15 0.10 0.10 0.06
0.00 0.00 0.00 0.00 0.00 0.00 0.00 0.00 0.00 0.00 0.00 0.00 0.00 0.00 0.00 0.00 0.00 0.00 0.00 0.00 0.00 0.00 0.00 0.01 0.01 0.01 0.01 0.01 0.01 0.01 0.02 0.03 0.04 0.04 0.04 0.06 0.07 0.11 0.13 0.15 0.14 0.08 0.03 0.01
MSLP
1007.20 1007.94 1008.48 1008.81 1008.96 1008.97 1008.90 1008.82 1008.75 1008.71 1008.71 1008.73 1008.75 1008.77 1008.80 1008.85 1008.95 1009.11 1009.35 1009.67 1010.04 1010.43 1010.80 1011.10 1011.32 1011.44 1011.47 1011.42 1011.34 1011.25 1011.19 1011.17 1011.20 1011.25 1011.31 1011.35 1011.34 1011.26 1011.11 1010.92 1010.70 1010.50 1010.35 1010.28
1007.71 1008.36 1008.81 1009.08 1009.23 1009.33 1009.42 1009.56 1009.75 1009.98 1010.20 1010.37 1010.45 1010.43 1010.31 1010.14 1009.97 1009.84 1009.82 1009.91 1010.12 1010.40 1010.72 1011.01 1011.23 1011.35 1011.38 1011.32 1011.23 1011.14 1011.08 1011.08 1011.15 1011.25 1011.36 1011.43 1011.42 1011.33 1011.14 1010.89 1010.60 1010.34 1010.15 1010.06
1008.03 1008.53 1008.87 1009.08 1009.24 1009.44 1009.72 1010.11 1010.60 1011.12 1011.60 1011.94 1012.10 1012.05 1011.79 1011.39 1010.93 1010.51 1010.19 1010.02 1010.02 1010.16 1010.39 1010.64 1010.86 1011.00 1011.05 1011.02 1010.95 1010.88 1010.86 1010.91 1011.02 1011.18 1011.34 1011.45 1011.47 1011.38 1011.17 1010.87 1010.54 1010.23 1010.00 1009.90
1008.14 1008.46 1008.65 1008.79 1008.97 1009.26 1009.74 1010.39 1011.17 1011.99 1012.72 1013.25 1013.50 1013.43 1013.06 1012.46 1011.73 1011.01 1010.41 1009.98 1009.78 1009.77 1009.92 1010.13 1010.35 1010.52 1010.60 1010.62 1010.59 1010.57 1010.59 1010.69 1010.85 1011.06 1011.27 1011.42 1011.48 1011.40 1011.19 1010.88 1010.53 1010.19 1009.93 1009.81
1008.08 1008.21 1008.25 1008.30 1008.47 1008.85 1009.49 1010.37 1011.42 1012.50 1013.46 1014.16 1014.50 1014.43 1013.97 1013.20 1012.27 1011.31 1010.47 1009.84 1009.46 1009.34 1009.41 1009.61 1009.84 1010.04 1010.17 1010.24 1010.25 1010.27 1010.33 1010.46 1010.66 1010.90 1011.15 1011.34 1011.43 1011.39 1011.20 1010.90 1010.54 1010.19 1009.91 1009.76
1007.96 1007.88 1007.77 1007.72 1007.87 1008.31 1009.06 1010.11 1011.35 1012.62 1013.75 1014.58 1015.00 1014.94 1014.43 1013.56 1012.49 1011.38 1010.39 1009.62 1009.13 1008.94 1008.98 1009.17 1009.43 1009.67 1009.85 1009.95 1010.00 1010.04 1010.11 1010.25 1010.46 1010.72 1010.98 1011.20 1011.32 1011.31 1011.16 1010.88 1010.54 1010.19 1009.90 1009.72
1007.86 1007.60 1007.35 1007.21 1007.32 1007.76 1008.57 1009.69 1011.03 1012.40 1013.63 1014.53 1014.99 1014.95 1014.42 1013.52 1012.39 1011.22 1010.17 1009.35 1008.84 1008.63 1008.68 1008.90 1009.19 1009.47 1009.68 1009.81 1009.87 1009.91 1009.97 1010.08 1010.27 1010.51 1010.77 1011.00 1011.14 1011.16 1011.04 1010.80 1010.48 1010.14 1009.85 1009.64
1007.84 1007.46 1007.10 1006.88 1006.94 1007.34 1008.12 1009.24 1010.57 1011.95 1013.17 1014.08 1014.54 1014.51 1014.01 1013.12 1012.03 1010.89 1009.87 1009.09 1008.62 1008.45 1008.55 1008.81 1009.14 1009.45 1009.68 1009.81 1009.87 1009.88 1009.90 1009.97 1010.10 1010.30 1010.53 1010.74 1010.88 1010.91 1010.82 1010.62 1010.33 1010.01 1009.71 1009.48
1007.95 1007.50 1007.09 1006.82 1006.81 1007.14 1007.84 1008.87 1010.09 1011.36 1012.50 1013.35 1013.78 1013.75 1013.29 1012.47 1011.47 1010.45 1009.54 1008.88 1008.50 1008.42 1008.58 1008.90 1009.26 1009.59 1009.82 1009.94 1009.97 1009.93 1009.90 1009.90 1009.97 1010.10 1010.27 1010.44 1010.56 1010.60 1010.52 1010.34 1010.08 1009.78 1009.48 1009.24
1008.16 1007.73 1007.31 1007.02 1006.96 1007.21 1007.78 1008.64 1009.69 1010.79 1011.76 1012.49 1012.85 1012.82 1012.41 1011.71 1010.85 1009.99 1009.26 1008.75 1008.51 1008.53 1008.76 1009.12 1009.50 1009.83 1010.05 1010.15 1010.13 1010.05 1009.95 1009.88 1009.87 1009.92 1010.02 1010.13 1010.22 1010.23 1010.16 1009.99 1009.74 1009.46 1009.17 1008.92
1008.44 1008.09 1007.73 1007.46 1007.38 1007.54 1007.96 1008.62 1009.45 1010.31 1011.08 1011.65 1011.93 1011.88 1011.54 1010.97 1010.29 1009.62 1009.08 1008.74 1008.64 1008.76 1009.05 1009.44 1009.82 1010.13 1010.32 1010.38 1010.32 1010.19 1010.03 1009.89 1009.81 1009.78 1009.81 1009.85 1009.88 1009.86 1009.76 1009.59 1009.35 1009.08 1008.81 1008.56
1008.71 1008.49 1008.25 1008.05 1007.96 1008.05 1008.33 1008.79 1009.37 1009.99 1010.54 1010.94 1011.13 1011.07 1010.80 1010.36 1009.87 1009.40 1009.05 1008.87 1008.89 1009.09 1009.41 1009.79 1010.14 1010.41 1010.56 1010.57 1010.48 1010.31 1010.11 1009.92 1009.78 1009.69 1009.64 1009.62 1009.58 1009.50 1009.37 1009.19 1008.95 1008.68 1008.42 1008.18
1008.93 1008.88 1008.78 1008.68 1008.62 1008.66 1008.82 1009.10 1009.46 1009.84 1010.19 1010.43 1010.53 1010.47 1010.27 1009.97 1009.64 1009.36 1009.18 1009.14 1009.25 1009.48 1009.79 1010.13 1010.42 1010.63 1010.72 1010.69 1010.57 1010.37 1010.15 1009.94 1009.76 1009.62 1009.51 1009.42 1009.32 1009.19 1009.01 1008.79 1008.54 1008.28 1008.02 1007.80
1009.07 1009.19 1009.24 1009.25 1009.25 1009.27 1009.34 1009.47 1009.64 1009.83 1010.00 1010.11 1010.14 1010.08 1009.95 1009.78 1009.61 1009.49 1009.45 1009.50 1009.66 1009.89 1010.15 1010.41 1010.62 1010.74 1010.77 1010.70 1010.55 1010.35 1010.13 1009.91 1009.71 1009.55 1009.39 1009.24 1009.08 1008.89 1008.66 1008.41 1008.13 1007.86 1007.61 1007.39
1009.12 1009.39 1009.58 1009.70 1009.76 1009.79 1009.80 1009.82 1009.85 1009.89 1009.92 1009.93 1009.92 1009.88 1009.83 1009.77 1009.73 1009.73 1009.79 1009.90 1010.07 1010.26 1010.45 1010.60 1010.71 1010.74 1010.69 1010.58 1010.41 1010.21 1010.00 1009.80 1009.61 1009.42 1009.24 1009.05 1008.83 1008.58 1008.30 1008.00 1007.70 1007.41 1007.15 1006.93
1009.10 1009.48 1009.78 1009.99 1010.11 1010.15 1010.13 1010.08 1010.01 1009.94 1009.87 1009.83 1009.80 1009.79 1009.80 1009.84 1009.91 1010.01 1010.14 1010.27 1010.41 1010.54 1010.63 1010.68 1010.67 1010.60 1010.48 1010.32 1010.14 1009.95 1009.77 1009.59 1009.41 1009.23 1009.03 1008.80 1008.53 1008.23 1007.90 1007.55 1007.21 1006.89 1006.61 1006.37
1009.06 1009.50 1009.86 1010.12 1010.28 1010.33 1010.29 1010.18 1010.05 1009.91 1009.79 1009.72 1009.69 1009.72 1009.80 1009.92 1010.08 1010.24 1010.41 1010.55 1010.65 1010.70 1010.69 1010.62 1010.50 1010.34 1010.15 1009.96 1009.77 1009.59 1009.43 1009.27 1009.12 1008.94 1008.73 1008.47 1008.16 1007.82 1007.43 1007.04 1006.65 1006.30 1005.98 1005.72
1009.02 1009.46 1009.83 1010.10 1010.26 1010.30 1010.24 1010.11 1009.94 1009.76 1009.62 1009.54 1009.54 1009.60 1009.74 1009.93 1010.15 1010.36 1010.54 1010.67 1010.73 1010.70 1010.60 1010.43 1010.22 1009.98 1009.74 1009.52 1009.32 1009.16 1009.02 1008.89 1008.75 1008.57 1008.35 1008.07 1007.73 1007.33 1006.90 1006.46 1006.03 1005.63 1005.27 1004.96
1009.01 1009.39 1009.72 1009.96 1010.08 1010.10 1010.02 1009.86 1009.67 1009.48 1009.34 1009.28 1009.30 1009.41 1009.60 1009.84 1010.10 1010.34 1010.53 1010.64 1010.65 1010.57 1010.40 1010.16 1009.87 1009.58 1009.31 1009.07 1008.87 1008.72 1008.59 1008.48 1008.34 1008.17 1007.93 1007.62 1007.24 1006.81 1006.33 1005.84 1005.36 1004.92 1004.52 1004.17
1009.02 1009.31 1009.54 1009.71 1009.77 1009.75 1009.63 1009.46 1009.27 1009.09 1008.97 1008.93 1008.99 1009.14 1009.37 1009.64 1009.93 1010.19 1010.37 1010.47 1010.45 1010.33 1010.11 1009.82 1009.51 1009.19 1008.90 1008.65 1008.46 1008.32 1008.21 1008.09 1007.95 1007.77 1007.50 1007.17 1006.75 1006.27 1005.75 1005.22 1004.70 1004.22 1003.78 1003.40
1009.01 1009.17 1009.29 1009.35 1009.35 1009.27 1009.13 1008.95 1008.77 1008.62 1008.53 1008.53 1008.63 1008.82 1009.08 1009.39 1009.69 1009.95 1010.13 1010.21 1010.17 1010.03 1009.79 1009.49 1009.16 1008.84 1008.56 1008.33 1008.15 1008.01 1007.90 1007.78 1007.63 1007.41 1007.12 1006.74 1006.28 1005.77 1005.21 1004.64 1004.09 1003.58 1003.12 1002.73
1008.91 1008.94 1008.93 1008.89 1008.80 1008.68 1008.52 1008.35 1008.20 1008.09 1008.06 1008.12 1008.27 1008.50 1008.79 1009.11 1009.42 1009.67 1009.85 1009.91 1009.86 1009.71 1009.48 1009.19 1008.88 1008.58 1008.32 1008.11 1007.94 1007.81 1007.69 1007.56 1007.37 1007.12 1006.78 1006.36 1005.86 1005.31 1004.72 1004.13 1003.56 1003.04 1002.58 1002.19
1008.67 1008.55 1008.43 1008.29 1008.13 1007.97 1007.81 1007.67 1007.58 1007.54 1007.59 1007.71 1007.92 1008.20 1008.52 1008.86 1009.16 1009.41 1009.56 1009.62 1009.56 1009.42 1009.20 1008.93 1008.65 1008.39 1008.17 1007.98 1007.83 1007.70 1007.57 1007.41 1007.18 1006.88 1006.50 1006.02 1005.48 1004.89 1004.28 1003.68 1003.11 1002.60 1002.16 1001.80
1008.21 1007.98 1007.75 1007.53 1007.32 1007.15 1007.01 1006.93 1006.91 1006.97 1007.11 1007.32 1007.60 1007.93 1008.29 1008.63 1008.93 1009.16 1009.30 1009.35 1009.29 1009.15 1008.95 1008.72 1008.48 1008.26 1008.08 1007.92 1007.78 1007.65 1007.50 1007.29 1007.02 1006.67 1006.23 1005.70 1005.12 1004.50 1003.87 1003.27 1002.72 1002.24 1001.84 1001.53
1007.52 1007.20 1006.89 1006.61 1006.38 1006.22 1006.13 1006.12 1006.20 1006.36 1006.61 1006.92 1007.28 1007.67 1008.06 1008.42 1008.72 1008.94 1009.06 1009.09 1009.03 1008.90 1008.73 1008.53 1008.33 1008.16 1008.00 1007.86 1007.74 1007.59 1007.41 1007.17 1006.84 1006.43 1005.93 1005.36 1004.74 1004.10 1003.47 1002.89 1002.37 1001.93 1001.58 1001.33
1006.63 1006.24 1005.88 1005.57 1005.34 1005.21 1005.18 1005.26 1005.44 1005.72 1006.07 1006.49 1006.93 1007.39 1007.81 1008.19 1008.49 1008.70 1008.81 1008.83 1008.77 1008.66 1008.50 1008.33 1008.17 1008.02 1007.89 1007.77 1007.64 1007.48 1007.27 1006.98 1006.60 1006.14 1005.59 1004.98 1004.33 1003.68 1003.06 1002.50 1002.02 1001.63 1001.34 1001.15
Thickness
5808 5791 5777 5784 5795 5800 5800 5794 5787 5792 5804 5801 5798 5791 5789 5794 5789 5781 5776 5772 5769 5767 5769 5770 5770 5768 5766 5762 5759 5756 5752 5749 5746 5743 5739 5735 5733 5731 5731 5729 5727 5725 5722 5720
5790 5777 5788 5798 5800 5803 5802 5796 5786 5785 5797 5797 5789 5784 5785 5785 5780 5776 5770 5766 5764 5762 5762 5762 5762 5761 5758 5754 5751 5748 5744 5741 5738 5734 5730 5727 5725 5723 5723 5722 5719 5718 5715 5712
5778 5784 5800 5797 5795 5794 5792 5786 5782 5778 5785 5787 5777 5762 5758 5765 5769 5771 5770 5767 5764 5760 5757 5756 5756 5754 5751 5747 5744 5742 5736 5732 5729 5725 5722 5719 5716 5714 5712 5710 5709 5709 5708 5705
5791 5800 5800 5795 5793 5788 5774 5791 5789 5778 5764 5754 5759 5728 5731 5739 5746 5757 5762 5762 5760 5758 5756 5753 5751 5748 5745 5742 5740 5736 5731 5726 5721 5717 5712 5706 5701 5699 5699 5699 5699 5699 5699 5697
5784 5793 5792 5792 5796 5795 5785 5798 5785 5769 5754 5744 5729 5712 5707 5726 5727 5743 5755 5758 5757 5755 5753 5749 5746 5743 5741 5738 5734 5730 5725 5719 5713 5708 5702 5697 5692 5690 5689 5689 5687 5687 5687 5688
5786 5805 5807 5806 5811 5809 5805 5792 5773 5753 5733 5706 5708 5699 5704 5721 5729 5741 5750 5754 5753 5752 5749 5746 5743 5739 5735 5733 5728 5723 5716 5709 5704 5699 5693 5687 5682 5679 5676 5675 5674 5675 5677 5678
5766 5788 5807 5816 5800 5802 5799 5772 5737 5711 5693 5691 5718 5708 5717 5741 5749 5750 5750 5750 5752 5750 5746 5741 5737 5732 5728 5724 5719 5713 5706 5699 5694 5688 5683 5677 5672 5669 5666 5666 5666 5666 5665 5665
5754 5762 5796 5808 5799 5788 5791 5778 5743 5721 5711 5710 5718 5707 5728 5754 5758 5758 5756 5754 5752 5748 5744 5738 5734 5728 5722 5716 5710 5703 5696 5689 5684 5678 5673 5668 5664 5660 5659 5659 5657 5655 5654 5654
5771 5775 5807 5812 5812 5801 5788 5784 5790 5770 5757 5736 5724 5725 5734 5754 5754 5756 5755 5752 5748 5744 5740 5735 5729 5723 5715 5708 5701 5694 5687 5680 5675 5669 5664 5660 5657 5654 5652 5649 5647 5646 5645 5645
5797 5780 5799 5812 5812 5806 5799 5793 5780 5764 5744 5739 5736 5726 5723 5739 5744 5750 5750 5747 5744 5740 5735 5729 5722 5715 5708 5701 5694 5687 5679 5672 5666 5661 5657 5653 5650 5647 5644 5641 5639 5637 5635 5633
5802 5779 5783 5795 5787 5780 5784 5781 5774 5768 5760 5740 5732 5723 5750 5747 5749 5748 5746 5744 5739 5733 5727 5721 5715 5708 5701 5693 5685 5677 5670 5663 5657 5653 5649 5645 5642 5639 5636 5633 5630 5627 5625 5623
5799 5785 5767 5768 5783 5795 5790 5779 5772 5751 5747 5754 5745 5729 5763 5760 5758 5751 5744 5740 5735 5728 5721 5714 5707 5699 5691 5683 5675 5667 5660 5654 5649 5645 5641 5637 5633 5629 5625 5622 5619 5616 5613 5610
5787 5773 5750 5737 5748 5772 5780 5780 5776 5770 5760 5749 5738 5735 5763 5763 5754 5747 5739 5733 5727 5721 5713 5705 5697 5689 5681 5673 5665 5658 5651 5646 5641 5637 5632 5627 5623 5618 5614 5610 5607 5603 5599 5596
5788 5773 5760 5746 5757 5773 5774 5775 5774 5763 5747 5738 5740 5741 5753 5748 5743 5739 5734 5728 5721 5713 5704 5696 5687 5680 5672 5664 5657 5650 5644 5639 5634 5628 5623 5618 5613 5608 5604 5599 5593 5589 5585 5582
5788 5770 5771 5776 5783 5782 5776 5772 5770 5759 5751 5740 5739 5740 5741 5740 5737 5733 5729 5721 5713 5705 5697 5688 5679 5671 5664 5657 5650 5643 5636 5631 5626 5620 5615 5610 5605 5599 5593 5587 5582 5576 5571 5568
5785 5766 5766 5766 5776 5776 5773 5774 5768 5760 5755 5748 5743 5739 5745 5742 5737 5729 5723 5715 5706 5698 5689 5681 5673 5664 5657 5649 5643 5636 5630 5624 5619 5612 5606 5601 5596 5589 5583 5577 5571 5565 5560 5555
5779 5768 5756 5753 5768 5768 5756 5768 5764 5759 5758 5749 5735 5736 5740 5732 5726 5722 5719 5710 5699 5690 5682 5674 5665 5658 5651 5644 5637 5630 5624 5618 5612 5605 5599 5593 5587 5581 5574 5567 5561 5554 5548 5544
5773 5762 5755 5752 5753 5730 5759 5781 5773 5758 5754 5753 5747 5741 5734 5729 5725 5720 5712 5700 5691 5684 5676 5668 5660 5654 5647 5640 5632 5625 5618 5612 5605 5598 5591 5585 5578 5572 5565 5558 5551 5544 5539 5534
5785 5764 5751 5745 5741 5747 5759 5769 5766 5750 5741 5750 5741 5734 5732 5730 5722 5711 5705 5698 5688 5680 5671 5664 5657 5650 5642 5634 5627 5619 5611 5605 5598 5591 5584 5578 5572 5565 5558 5551 5545 5539 5533 5528
5784 5771 5753 5745 5730 5727 5753 5769 5771 5753 5729 5738 5736 5728 5723 5719 5702 5703 5703 5696 5686 5677 5669 5661 5654 5646 5637 5629 5621 5612 5605 5599 5592 5585 5579 5573 5566 5559 5553 5548 5541 5535 5529 5525
5762 5757 5748 5742 5737 5749 5761 5768 5763 5730 5719 5736 5734 5727 5720 5709 5701 5701 5700 5691 5682 5673 5665 5658 5650 5640 5631 5624 5616 5607 5600 5593 5587 5581 5575 5569 5562 5556 5552 5547 5540 5534 5528 5524
5764 5755 5751 5748 5734 5734 5761 5761 5743 5734 5742 5738 5732 5727 5719 5711 5707 5701 5693 5685 5676 5668 5661 5654 5645 5636 5628 5620 5611 5602 5595 5589 5583 5577 5572 5566 5561 5555 5552 5545 5539 5534 5528 5524
5773 5769 5761 5753 5747 5757 5765 5758 5755 5751 5741 5735 5730 5725 5717 5708 5701 5695 5688 5679 5671 5664 5656 5649 5641 5633 5625 5617 5608 5598 5592 5586 5580 5574 5569 5565 5560 5555 5550 5544 5538 5533 5528 5524
5776 5777 5763 5754 5760 5764 5765 5764 5759 5753 5743 5737 5731 5723 5715 5705 5698 5691 5682 5674 5666 5659 5652 5645 5637 5629 5621 5613 5605 5596 5589 5583 5577 5572 5568 5564 5560 5555 5551 5545 5539 5533 5528 5523
5767 5766 5758 5752 5758 5761 5762 5761 5757 5750 5744 5735 5728 5721 5712 5703 5694 5686 5678 5670 5662 5655 5649 5642 5633 5625 5618 5610 5603 5595 5587 5581 5575 5571 5567 5563 5559 5556 5551 5546 5540 5534 5528 5519
5772 5767 5756 5750 5757 5752 5752 5757 5756 5745 5737 5731 5722 5714 5709 5701 5691 5683 5674 5666 5659 5652 5645 5638 5630 5623 5615 5608 5600 5592 5585 5579 5573 5570 5567 5562 5559 5555 5551 5547 5542 5532 5525 5518